Weather History for Spokane Fairchild, WA

Change the Weather History Date:

Monday, February 18, 2013

  Actual Average Record
Temperature  
Mean Temperature 31 °F -  
Max Temperature 39 °F 38 °F 48 °F (1998)
Min Temperature 23 °F 24 °F 5 °F (2006)
Degree Days  
Heating Degree Days 34    
Moisture  
Dew Point 26 °F    
Average Humidity 79    
Maximum Humidity 93    
Minimum Humidity 57    
Precipitation  
Precipitation 0.00 in - - ()
Sea Level Pressure  
Sea Level Pressure 29.95 in    
Wind  
Wind Speed 6 mph (East)    
Max Wind Speed 15 mph    
Max Gust Speed -    
Visibility 10 miles    
Events      
Averages and records for this station are not official NWS values.
T = Trace of Precipitation, MM = Missing Value Source: NWS Daily Summary

Daily Weather History Graph

Daily Weather History Graph

Search for Another Location

Airport:

Trip Planner

Search our weather history database for the weather conditions in past years. The results will help you decide how hot, cold, wet, or windy it might be!

Date:

Astronomy

Feb. 18, 2013 Rise Set
Actual Time 6:50 AM PST 5:19 PM PST
Civil Twilight 6:19 AM PST 5:50 PM PST
Nautical Twilight 5:43 AM PST 6:26 PM PST
Astronomical Twilight 5:07 AM PST 7:02 PM PST
Moon 10:55 AM PST (2/18) 1:46 AM PST (2/18)
Length of Visible Light 11h 31m
Length of Day
10h 28m
First Quarter, 59% of the Moon is Illuminated
Feb 18
First Quarter
Feb 25
Full
Mar 4
Last Quarter
Mar 11
New
Mar 19
First Quarter

Hourly Weather History & Observations

Time (PST) Temp. Windchill Dew Point Humidity Pressure Visibility Wind Dir Wind Speed Gust Speed Precip Events Conditions
12:53 AM 26.6 °F 18.2 °F 24.8 °F 93% 30.06 in 10.0 mi East 8.1 mph - N/A   Clear
12:58 AM 26.6 °F 20.0 °F 23.0 °F 86% 30.12 in 10.0 mi East 5.8 mph - 0.00 in   Clear
1:18 AM 26.6 °F 22.6 °F 23.0 °F 86% 30.06 in 10.0 mi SSE 3.5 mph - N/A   Mostly Cloudy
1:58 AM 26.6 °F - 23.2 °F 87% 30.12 in 10.0 mi SSE 2.3 mph - 0.00 in   Mostly Cloudy
1:59 AM 26.6 °F - 23.0 °F 86% 30.05 in 10.0 mi SSE 2.3 mph - N/A   Mostly Cloudy
2:22 AM 26.6 °F - 23.0 °F 86% 30.05 in 10.0 mi SSE 2.3 mph - N/A   Partly Cloudy
2:58 AM 26.8 °F - 23.7 °F 88% 30.11 in 10.0 mi SSE 2.3 mph - 0.00 in   Clear
3:16 AM 24.8 °F - 23.0 °F 93% 30.03 in 10.0 mi East 1.2 mph - N/A   Clear
3:33 AM 24.8 °F - 23.0 °F 93% 30.03 in 10.0 mi SE 2.3 mph - N/A   Clear
3:58 AM 26.1 °F 20.5 °F 22.5 °F 86% 30.09 in 10.0 mi SE 4.6 mph - 0.00 in   Clear
4:58 AM 27.0 °F 23.0 °F 23.4 °F 86% 30.09 in 10.0 mi East 3.5 mph - N/A   Clear
5:58 AM 23.5 °F 17.6 °F 21.6 °F 92% 30.09 in 10.0 mi East 4.6 mph - N/A   Clear
6:58 AM 25.7 °F 17.1 °F 23.7 °F 92% 30.07 in 10.0 mi ENE 8.1 mph - N/A   Partly Cloudy
7:58 AM 27.7 °F 18.2 °F 25.5 °F 92% 30.05 in 10.0 mi NE 10.4 mph - N/A   Partly Cloudy
8:58 AM 31.1 °F 23.7 °F 27.5 °F 87% 30.02 in 10.0 mi NE 8.1 mph - N/A   Scattered Clouds
9:58 AM 34.5 °F 26.7 °F 28.6 °F 79% 30.01 in 10.0 mi NE 10.4 mph - N/A   Scattered Clouds
10:21 AM 35.6 °F 26.2 °F 28.4 °F 75% 29.93 in 10.0 mi ENE 15.0 mph - N/A   Partly Cloudy
10:36 AM 35.6 °F 26.6 °F 28.4 °F 75% 29.93 in 10.0 mi ENE 13.8 mph - N/A   Clear
10:58 AM 35.8 °F 27.8 °F 27.9 °F 73% 30.00 in 10.0 mi ENE 11.5 mph - 0.00 in   Scattered Clouds
11:47 AM 37.4 °F 29.8 °F 28.4 °F 70% 29.91 in 10.0 mi East 11.5 mph - N/A   Overcast
11:50 AM 37.4 °F 29.3 °F 28.4 °F 70% 29.91 in 10.0 mi East 12.7 mph - N/A   Overcast
11:54 AM 37.4 °F 30.8 °F 28.4 °F 70% 29.91 in 10.0 mi East 9.2 mph - N/A   Overcast
11:58 AM 37.9 °F 30.5 °F 28.4 °F 69% 29.98 in 10.0 mi East 11.5 mph - 0.00 in   Overcast
11:59 AM 37.4 °F 30.3 °F 28.4 °F 70% 29.90 in 10.0 mi East 10.4 mph - N/A   Overcast
12:58 PM 39.0 °F 32.3 °F 28.2 °F 65% 29.95 in 10.0 mi East 10.4 mph - 0.00 in   Overcast
1:58 PM 39.6 °F 33.0 °F 25.3 °F 57% 29.94 in 10.0 mi SE 10.4 mph - N/A   Overcast
2:58 PM 39.2 °F 34.2 °F 25.2 °F 57% 29.92 in 10.0 mi East 6.9 mph - N/A   Partly Cloudy
3:58 PM 38.7 °F 32.9 °F 25.9 °F 60% 29.90 in 10.0 mi East 8.1 mph - N/A   Mostly Cloudy
4:58 PM 36.9 °F 32.2 °F 27.0 °F 67% 29.88 in 10.0 mi East 5.8 mph - N/A   Mostly Cloudy
5:58 PM 34.2 °F 27.5 °F 25.7 °F 71% 29.88 in 10.0 mi ENE 8.1 mph - N/A   Scattered Clouds
6:58 PM 33.3 °F 28.9 °F 26.1 °F 75% 29.87 in 10.0 mi ENE 4.6 mph - N/A   Partly Cloudy
7:58 PM 32.7 °F 26.4 °F 26.2 °F 77% 29.85 in 10.0 mi NE 6.9 mph - N/A   Mostly Cloudy
8:58 PM 32.4 °F 29.1 °F 25.9 °F 77% 29.84 in 10.0 mi NE 3.5 mph - N/A   Overcast
9:31 PM 32.0 °F 28.7 °F 26.6 °F 80% 29.76 in 10.0 mi ENE 3.5 mph - N/A   Overcast
9:40 PM 32.0 °F - 24.8 °F 75% 29.76 in 10.0 mi East 1.2 mph - N/A   Overcast
9:58 PM 34.0 °F 31.0 °F 26.1 °F 73% 29.83 in 10.0 mi SE 3.5 mph - 0.00 in   Overcast
10:04 PM 33.8 °F 29.6 °F 26.6 °F 75% 29.76 in 10.0 mi SE 4.6 mph - N/A   Overcast
10:36 PM 32.0 °F 26.4 °F 28.4 °F 87% 29.76 in 10.0 mi SSE 5.8 mph - N/A   Mostly Cloudy
10:58 PM 32.7 °F - 27.5 °F 81% 29.83 in 10.0 mi South 2.3 mph - 0.00 in   Mostly Cloudy
11:49 PM 32.0 °F 27.5 °F 26.6 °F 80% 29.74 in 10.0 mi East 4.6 mph - N/A   Overcast
11:58 PM 31.8 °F 26.2 °F 27.3 °F 83% 29.80 in 10.0 mi ESE 5.8 mph - 0.00 in   Overcast